Total_Precipitation_Accumulation
0.17 0.15 0.16 0.24 0.21 0.15 0.10 0.04 0.02 0.03 0.03 0.03 0.03 0.03 0.04 0.06 0.06 0.09 0.09 0.08 0.07 0.10 0.23 0.49 0.72 0.84 0.92 0.90 0.83 0.76 0.71 0.71 0.79 0.85 0.87 0.90 0.97 1.01 1.07 1.07 1.05 1.00 0.96 0.96 1.02 1.10 1.09 1.02 0.92
0.19 0.22 0.26 0.29 0.22 0.15 0.08 0.04 0.02 0.02 0.02 0.03 0.03 0.02 0.03 0.04 0.04 0.05 0.10 0.13 0.10 0.11 0.22 0.39 0.69 0.84 0.90 0.91 0.86 0.85 0.86 0.85 0.91 0.95 0.92 0.89 0.96 1.05 1.13 1.08 1.05 1.03 0.98 0.93 0.93 0.94 0.96 0.82 0.71
0.31 0.35 0.34 0.29 0.16 0.11 0.07 0.03 0.02 0.02 0.02 0.02 0.02 0.02 0.03 0.05 0.05 0.07 0.11 0.15 0.14 0.16 0.24 0.45 0.75 0.90 0.94 0.98 0.93 0.91 0.94 0.99 1.01 1.03 1.03 1.03 1.06 1.09 1.16 1.17 1.13 1.06 0.99 0.94 0.91 0.84 0.82 0.77 0.71
0.44 0.47 0.38 0.25 0.09 0.05 0.04 0.03 0.01 0.02 0.02 0.02 0.02 0.02 0.03 0.04 0.05 0.09 0.13 0.20 0.20 0.23 0.29 0.52 0.78 0.96 1.01 1.06 1.05 1.04 1.05 1.06 1.09 1.06 1.07 1.10 1.21 1.22 1.18 1.16 1.22 1.18 1.03 0.95 0.93 0.86 0.83 0.75 0.71
0.59 0.52 0.37 0.18 0.04 0.02 0.02 0.03 0.02 0.01 0.02 0.03 0.02 0.03 0.05 0.04 0.06 0.11 0.18 0.26 0.30 0.32 0.38 0.57 0.84 1.01 1.12 1.18 1.20 1.25 1.26 1.25 1.22 1.16 1.11 1.10 1.15 1.23 1.19 1.10 1.10 1.07 1.01 0.95 0.93 0.86 0.83 0.82 0.76
0.68 0.55 0.31 0.12 0.04 0.03 0.02 0.02 0.02 0.02 0.02 0.04 0.05 0.04 0.07 0.09 0.11 0.15 0.17 0.25 0.32 0.38 0.47 0.69 1.01 1.15 1.21 1.27 1.25 1.34 1.41 1.43 1.40 1.30 1.20 1.18 1.19 1.19 1.18 1.08 1.05 1.03 0.99 0.92 0.87 0.86 0.79 0.77 0.76
0.73 0.53 0.26 0.09 0.05 0.05 0.04 0.02 0.01 0.02 0.02 0.04 0.06 0.06 0.09 0.16 0.20 0.19 0.21 0.27 0.34 0.43 0.56 0.78 1.05 1.21 1.37 1.37 1.32 1.35 1.38 1.46 1.43 1.33 1.25 1.20 1.17 1.16 1.13 1.13 1.06 1.04 1.06 0.98 0.86 0.82 0.82 0.73 0.70
0.76 0.67 0.34 0.13 0.08 0.07 0.06 0.06 0.03 0.03 0.03 0.04 0.06 0.09 0.10 0.18 0.23 0.29 0.33 0.35 0.46 0.54 0.69 0.88 1.08 1.20 1.33 1.42 1.37 1.32 1.34 1.41 1.50 1.43 1.30 1.24 1.23 1.23 1.16 1.07 1.12 1.09 1.05 1.04 0.93 0.84 0.88 0.84 0.72
0.90 0.86 0.45 0.17 0.12 0.09 0.07 0.08 0.05 0.04 0.05 0.06 0.07 0.09 0.11 0.20 0.28 0.40 0.50 0.57 0.63 0.74 0.88 1.01 1.13 1.24 1.37 1.46 1.41 1.42 1.42 1.47 1.53 1.52 1.45 1.35 1.32 1.33 1.26 1.09 1.10 1.16 1.13 1.05 1.02 0.93 0.91 0.90 0.75
0.98 0.79 0.36 0.18 0.16 0.15 0.11 0.10 0.08 0.08 0.08 0.08 0.10 0.14 0.19 0.30 0.42 0.45 0.50 0.58 0.67 0.78 0.96 1.09 1.18 1.30 1.49 1.57 1.60 1.67 1.58 1.50 1.53 1.45 1.44 1.42 1.40 1.45 1.36 1.30 1.20 1.19 1.22 1.19 1.13 1.06 0.99 0.92 0.78
0.81 0.57 0.29 0.19 0.22 0.22 0.17 0.13 0.10 0.12 0.10 0.10 0.12 0.17 0.25 0.36 0.47 0.51 0.52 0.58 0.66 0.79 0.97 1.16 1.28 1.42 1.60 1.64 1.64 1.66 1.67 1.56 1.57 1.55 1.47 1.44 1.47 1.43 1.48 1.45 1.47 1.44 1.36 1.34 1.30 1.24 1.09 0.98 0.89
0.70 0.45 0.31 0.25 0.25 0.29 0.26 0.20 0.16 0.12 0.10 0.10 0.14 0.20 0.28 0.39 0.47 0.52 0.61 0.70 0.77 0.88 1.02 1.19 1.38 1.56 1.73 1.76 1.79 1.71 1.63 1.56 1.50 1.57 1.57 1.51 1.43 1.32 1.25 1.27 1.25 1.29 1.30 1.33 1.34 1.29 1.15 1.07 1.00
0.67 0.48 0.33 0.27 0.27 0.29 0.29 0.26 0.21 0.13 0.08 0.12 0.17 0.25 0.33 0.40 0.46 0.59 0.73 0.81 0.88 0.93 1.06 1.19 1.37 1.54 1.77 2.00 1.98 1.95 1.82 1.66 1.58 1.59 1.59 1.52 1.45 1.35 1.22 1.14 1.19 1.17 1.15 1.18 1.22 1.15 1.05 1.00 0.95
0.60 0.50 0.39 0.32 0.28 0.28 0.31 0.29 0.28 0.17 0.15 0.19 0.24 0.28 0.36 0.44 0.52 0.67 0.80 0.89 0.93 0.99 1.12 1.26 1.40 1.52 1.74 2.00 2.09 2.06 1.99 1.91 1.84 1.72 1.64 1.58 1.53 1.44 1.34 1.21 1.17 1.16 1.14 1.15 1.14 1.12 1.03 0.95 0.86
0.61 0.64 0.51 0.36 0.31 0.31 0.36 0.37 0.32 0.22 0.23 0.24 0.27 0.29 0.37 0.48 0.53 0.63 0.74 0.91 1.04 1.09 1.20 1.36 1.51 1.65 1.75 1.89 2.16 2.21 2.18 2.11 2.03 1.84 1.80 1.82 1.70 1.61 1.55 1.42 1.28 1.18 1.15 1.19 1.20 1.17 1.15 1.04 0.90
0.83 0.91 0.74 0.40 0.32 0.35 0.51 0.48 0.28 0.28 0.34 0.32 0.32 0.35 0.44 0.54 0.58 0.64 0.72 0.92 1.15 1.22 1.29 1.50 1.63 1.76 1.81 1.84 2.07 2.22 2.26 2.32 2.29 2.19 2.04 1.98 1.97 1.89 1.80 1.69 1.54 1.41 1.29 1.23 1.24 1.17 1.15 1.11 1.00
1.19 1.04 0.70 0.44 0.35 0.42 0.54 0.53 0.35 0.33 0.42 0.42 0.41 0.41 0.47 0.59 0.63 0.68 0.75 0.88 1.04 1.17 1.38 1.63 1.73 1.78 1.88 1.89 2.00 2.22 2.25 2.27 2.36 2.45 2.39 2.27 2.20 2.11 2.05 1.93 1.81 1.73 1.60 1.43 1.31 1.25 1.16 1.10 1.05
1.16 0.83 0.58 0.48 0.39 0.45 0.53 0.48 0.38 0.38 0.44 0.43 0.43 0.43 0.47 0.56 0.59 0.69 0.78 0.93 1.04 1.16 1.40 1.69 1.90 1.94 2.00 2.07 2.05 2.19 2.34 2.23 2.15 2.23 2.32 2.40 2.47 2.41 2.32 2.19 2.02 1.97 1.87 1.73 1.55 1.42 1.29 1.16 1.08
0.83 0.81 0.62 0.45 0.42 0.49 0.51 0.50 0.45 0.38 0.39 0.38 0.34 0.39 0.47 0.51 0.56 0.68 0.80 0.97 1.10 1.22 1.38 1.62 1.87 1.98 2.01 2.05 1.99 1.91 2.05 2.15 2.04 1.92 2.04 2.24 2.41 2.56 2.58 2.40 2.26 2.17 2.05 1.83 1.70 1.66 1.57 1.40 1.25
0.88 0.89 0.68 0.48 0.46 0.57 0.58 0.55 0.44 0.37 0.39 0.36 0.33 0.37 0.47 0.52 0.59 0.67 0.77 0.93 1.04 1.19 1.30 1.51 1.79 1.93 1.89 1.85 1.89 1.85 1.87 1.96 2.04 1.97 1.95 2.05 2.27 2.49 2.72 2.62 2.43 2.31 2.23 2.12 1.91 1.77 1.75 1.67 1.47
0.91 0.79 0.64 0.62 0.62 0.68 0.74 0.70 0.43 0.37 0.38 0.38 0.39 0.41 0.48 0.52 0.58 0.65 0.73 0.85 0.99 1.17 1.26 1.32 1.58 1.88 1.93 1.92 2.02 2.05 2.10 2.12 2.12 2.01 1.95 2.00 2.11 2.24 2.35 2.44 2.33 2.33 2.28 2.22 2.11 1.93 1.83 1.86 1.71
0.87 0.50 0.54 0.68 0.91 0.95 0.82 1.00 0.54 0.39 0.39 0.38 0.42 0.48 0.50 0.53 0.58 0.65 0.71 0.84 0.94 1.11 1.34 1.39 1.47 1.73 1.96 1.99 1.99 1.96 1.99 1.97 1.95 1.87 1.79 1.90 2.10 2.20 2.22 2.28 2.29 2.14 2.07 2.02 2.02 2.00 1.89 1.92 1.92
0.70 0.46 0.57 0.78 1.06 1.08 0.81 1.00 0.63 0.38 0.43 0.39 0.38 0.44 0.45 0.50 0.60 0.67 0.74 0.86 1.00 1.15 1.36 1.50 1.56 1.62 1.82 1.90 1.86 1.86 1.85 1.84 1.91 1.90 1.82 1.79 1.95 2.17 2.26 2.23 2.25 2.27 2.12 1.94 1.87 1.91 1.94 1.91 1.87
0.66 0.76 0.94 1.11 1.53 1.59 0.66 0.69 0.67 0.56 0.57 0.45 0.39 0.44 0.45 0.51 0.63 0.69 0.78 0.92 1.09 1.23 1.41 1.56 1.66 1.58 1.65 1.88 1.87 1.75 1.71 1.71 1.79 1.87 1.94 1.91 1.86 1.94 2.08 2.17 2.13 2.14 2.17 2.11 1.92 1.84 1.89 1.87 1.82
1.03 1.53 2.28 2.37 2.19 1.24 0.38 0.46 0.65 0.54 0.52 0.48 0.45 0.48 0.46 0.50 0.61 0.69 0.79 0.94 1.04 1.18 1.33 1.50 1.59 1.58 1.59 1.78 1.87 1.76 1.64 1.61 1.60 1.68 1.78 1.84 1.83 1.79 1.83 1.94 2.00 1.98 1.99 2.04 2.02 1.92 1.87 1.85 1.85
1.07 1.33 1.80 1.72 1.09 0.54 0.33 0.47 0.54 0.44 0.38 0.38 0.38 0.44 0.45 0.45 0.52 0.62 0.72 0.86 0.98 1.03 1.15 1.34 1.49 1.48 1.52 1.68 1.88 1.87 1.72 1.68 1.57 1.56 1.65 1.72 1.70 1.64 1.61 1.66 1.76 1.77 1.73 1.80 1.92 1.91 1.82 1.82 1.83
0.99 1.03 0.95 1.34 0.90 0.62 0.49 0.43 0.42 0.31 0.28 0.31 0.34 0.38 0.43 0.45 0.50 0.57 0.67 0.73 0.81 0.93 1.02 1.14 1.38 1.50 1.50 1.54 1.75 1.97 1.95 1.80 1.68 1.56 1.57 1.63 1.63 1.62 1.62 1.60 1.61 1.58 1.58 1.58 1.63 1.69 1.66 1.70 1.73
0.85 0.95 1.20 1.71 1.42 0.84 0.51 0.43 0.57 0.46 0.41 0.37 0.37 0.40 0.39 0.43 0.53 0.57 0.62 0.66 0.72 0.84 0.92 1.02 1.23 1.43 1.49 1.50 1.60 1.79 2.02 1.95 1.85 1.81 1.62 1.58 1.57 1.59 1.61 1.60 1.59 1.54 1.48 1.53 1.56 1.52 1.47 1.53 1.58
0.89 1.14 1.42 1.57 1.25 1.06 0.70 0.60 0.63 0.56 0.48 0.43 0.41 0.39 0.39 0.41 0.50 0.55 0.57 0.64 0.71 0.79 0.90 1.00 1.13 1.27 1.38 1.39 1.46 1.56 1.77 1.96 1.98 1.90 1.73 1.56 1.55 1.51 1.47 1.49 1.53 1.52 1.47 1.46 1.56 1.54 1.45 1.48 1.48
0.77 0.96 1.23 1.66 1.26 0.86 0.80 0.67 0.45 0.39 0.41 0.39 0.38 0.37 0.37 0.41 0.45 0.52 0.56 0.62 0.67 0.76 0.87 0.95 1.03 1.18 1.28 1.34 1.40 1.48 1.55 1.72 1.93 1.85 1.68 1.51 1.47 1.48 1.46 1.42 1.45 1.47 1.48 1.49 1.52 1.51 1.44 1.42 1.42